Location: Köln
(50.9375°N, 6.9603°E)
Time: 09:52:23
(UTC+01:00)

ISS - Visible Passes

Search period start: 30 November 2022 00:00
Search period end: 10 December 2022 00:00
Orbit: 411 x 420 km, 51.6° (Epoch: 30 November)

Date Brightness Start Highest point End Pass type
(mag) Time Alt. Az. Time Alt. Az. Time Alt. Az.
30 Nov -3.8 17:01:44 10° W 17:05:05 77° N 17:08:25 10° E visible
30 Nov -3.8 18:38:31 10° WNW 18:41:51 75° SSW 18:41:59 74° S visible
01 Dec -3.8 17:49:47 10° W 17:53:08 90° N 17:55:21 20° ESE visible
01 Dec -1.3 19:26:38 10° W 19:28:14 22° WSW 19:28:14 22° WSW visible
02 Dec -2.9 18:37:46 10° W 18:40:59 44° SSW 18:41:40 38° S visible
03 Dec -3.3 17:48:57 10° W 17:52:15 61° SSW 17:55:13 12° ESE visible
03 Dec -1.0 19:26:19 10° W 19:28:08 16° SW 19:28:08 16° SW visible
04 Dec -1.6 18:37:07 10° W 18:39:51 24° SW 18:41:51 14° SSE visible
05 Dec -2.1 17:48:05 10° W 17:51:09 34° SSW 17:54:12 10° SE visible
06 Dec -0.6 18:37:11 10° WSW 18:38:28 12° SW 18:39:44 10° SSW visible
07 Dec -0.8 17:47:28 10° W 17:49:47 18° SW 17:52:06 10° S visible
